Dewpoint
62 66 64 63 57 47 40 41 44 43 42 46 49 49 49 51 54 53 60 62 62 63 68 68 70 69 71 70 71 71 71 71 72 72 72 71 71 71 72 71 71 71 71 71 72 72 72 72 72
62 63 64 61 49 42 39 41 43 44 45 46 48 49 50 51 54 56 57 59 59 60 63 64 70 69 71 71 71 71 71 71 72 72 72 71 72 71 71 71 70 70 70 70 70 71 72 71 71
66 64 62 52 45 41 42 43 44 46 47 47 47 49 51 52 53 54 56 59 61 62 63 67 70 69 71 71 71 71 71 71 72 70 70 70 71 71 72 71 70 70 70 71 70 71 71 71 71
60 61 59 53 39 43 43 44 45 46 49 49 48 48 51 53 54 55 58 61 64 65 62 69 70 71 71 71 71 71 71 71 71 72 71 71 69 69 71 71 71 71 71 71 72 71 70 71 71
58 54 52 40 41 44 44 45 45 46 47 49 47 48 51 53 55 56 58 60 61 63 62 67 71 71 71 71 71 71 71 71 71 72 71 71 70 71 70 70 71 71 71 71 71 70 69 68 69
54 53 51 43 43 45 45 47 47 46 49 50 47 50 52 54 54 55 57 58 62 63 62 65 71 71 71 72 71 71 71 71 71 71 71 71 71 71 70 70 70 70 70 70 71 71 71 70 68
55 52 44 44 43 47 48 48 50 46 47 48 48 50 52 53 55 56 57 57 57 62 58 61 66 70 72 72 71 71 71 71 71 71 71 71 70 70 69 68 69 70 70 70 70 71 71 71 71
53 54 44 43 44 45 48 48 47 46 47 48 50 49 51 54 55 56 56 55 54 58 58 59 61 65 66 69 71 71 71 71 71 71 71 70 69 68 68 69 68 68 69 69 70 70 70 71 71
55 53 48 42 44 47 49 49 52 50 49 47 50 50 53 55 55 55 54 54 54 57 58 65 65 67 68 67 70 71 71 71 71 70 71 70 65 65 66 70 69 68 67 68 68 69 69 69 70
52 52 54 56 48 47 49 49 48 46 47 48 49 53 55 56 55 54 52 53 55 57 62 63 62 64 67 66 68 66 67 68 63 62 65 64 67 63 63 67 70 69 70 70 70 69 68 69 67
53 53 56 56 53 48 49 50 48 43 46 48 49 53 55 55 54 51 52 52 54 59 58 66 65 65 65 67 67 65 64 61 63 64 66 64 64 66 65 65 66 65 68 64 65 65 65 62 61
53 56 56 58 56 50 49 49 51 49 46 50 52 54 53 55 51 50 52 52 55 58 59 61 63 66 66 66 66 62 62 58 59 64 65 66 62 63 63 60 62 61 60 64 64 61 64 62 63
52 56 56 57 55 53 53 50 50 50 49 51 52 52 53 53 52 52 53 53 56 58 59 60 63 65 65 62 59 60 60 58 61 64 65 63 61 62 61 64 63 62 61 60 61 62 62 61 59
53 55 56 58 58 55 51 50 50 50 49 51 52 50 50 51 54 54 53 54 56 57 59 62 64 65 65 63 62 60 61 59 59 60 65 66 61 63 63 63 62 61 61 61 61 63 61 57 56
55 55 56 56 57 55 56 51 48 51 50 49 50 51 52 53 54 54 54 56 57 57 60 62 63 65 66 65 63 61 59 59 59 63 66 66 65 67 69 62 65 61 64 66 64 64 61 56 55
51 52 50 54 56 56 56 47 53 52 50 48 48 50 53 53 53 56 56 55 57 58 60 62 61 63 63 63 63 61 62 60 62 63 63 65 68 68 69 64 63 63 65 63 61 61 59 55 55
46 44 49 53 57 55 54 47 53 52 50 48 47 49 52 53 53 56 57 56 57 59 61 61 62 63 63 64 64 64 64 65 63 62 62 66 66 67 70 65 66 70 68 62 59 59 58 57 55
44 40 44 48 53 55 52 48 58 52 52 51 49 49 51 52 53 54 56 56 56 60 61 61 62 66 64 64 65 66 62 63 60 64 64 66 65 66 70 63 67 73 71 63 66 65 61 60 56
33 41 47 49 53 52 53 52 52 53 52 53 50 48 49 51 53 53 54 56 56 59 61 63 66 65 65 63 62 63 62 63 62 62 66 67 65 67 68 68 66 72 69 69 67 66 65 61 62
32 35 43 49 52 52 53 52 55 54 53 54 51 48 50 50 52 53 54 54 56 58 60 62 66 68 68 66 65 64 65 61 61 64 65 66 66 67 67 68 66 68 68 68 69 68 68 61 62
32 40 47 41 51 53 52 50 52 56 56 54 55 53 50 49 50 53 53 54 55 57 60 62 64 66 67 68 65 65 67 67 63 66 64 65 66 67 68 68 69 68 68 68 67 68 67 68 61
27 37 40 40 48 46 50 44 51 54 55 56 53 54 52 49 50 51 53 54 55 58 60 62 65 67 67 68 68 66 62 60 59 61 62 66 66 66 67 68 68 68 71 71 65 66 68 67 65
33 41 38 40 39 48 48 46 49 53 54 55 54 54 52 48 48 51 52 53 54 57 60 61 65 67 66 67 68 65 66 66 63 63 68 67 69 68 66 68 68 69 67 70 69 67 68 68 65
31 37 38 38 35 37 44 44 47 48 48 54 54 54 54 49 47 50 51 54 54 57 59 61 65 67 68 68 68 68 65 65 65 63 64 63 63 66 67 68 68 69 68 68 68 69 68 68 69
33 32 29 30 31 32 48 44 47 48 49 51 54 54 54 50 48 48 51 53 54 56 58 60 65 67 67 67 67 67 67 66 66 66 63 66 65 60 69 68 69 68 69 68 69 70 69 68 67
31 29 30 31 29 35 45 40 50 47 48 53 53 53 54 52 51 47 50 52 54 56 58 60 64 67 67 66 67 68 67 67 66 66 64 67 64 66 68 68 68 69 69 68 68 67 68 68 67
28 27 40 28 32 32 41 43 48 49 50 50 51 51 53 53 52 49 49 51 55 56 58 61 63 66 67 66 66 67 68 67 65 69 68 66 66 68 67 67 68 70 69 70 67 67 67 66 67
34 47 30 21 26 32 36 42 37 46 51 53 52 50 50 55 54 51 49 51 54 56 58 61 62 65 66 65 65 65 66 67 68 68 66 67 69 68 69 68 68 69 69 68 69 68 68 67 66
28 32 33 32 34 36 36 38 39 50 53 52 53 53 58 56 57 55 49 51 54 55 57 59 62 63 65 64 63 63 64 66 68 67 68 68 68 69 69 70 70 69 68 70 70 71 69 68 68
40 39 42 33 35 40 39 38 47 53 55 53 53 53 60 60 56 55 52 51 54 56 57 58 60 62 64 64 63 63 64 64 64 66 67 68 68 69 69 70 70 69 69 69 69 70 69 68 68
Wind_Speed
11 15 10 7 5 10 9 14 14 10 17 14 14 10 13 11 9 18 20 20 21 15 10 7 4 6 8 12 10 14 13 15 15 15 15 15 15 16 17 17 17 17 17 16 16 16 17 16 16
13 6 9 5 5 15 14 11 11 15 14 13 8 22 17 22 23 24 23 20 23 21 14 12 7 6 10 11 11 13 13 14 15 15 14 15 15 16 17 17 16 16 15 13 15 17 15 16 14
15 6 13 5 2 8 14 14 11 14 9 11 10 18 19 26 23 23 25 22 18 12 18 13 10 10 11 11 14 13 13 13 14 14 14 13 15 15 16 15 16 16 15 14 14 14 13 14 13
7 6 8 3 13 14 15 15 14 11 9 11 20 19 23 19 23 25 25 24 21 7 20 14 12 11 13 12 13 13 13 14 13 14 14 13 15 14 15 14 15 14 15 15 17 14 12 13 13
11 12 12 6 12 15 15 12 9 9 11 11 24 22 17 18 26 21 22 19 16 19 20 17 12 11 12 12 13 14 14 14 14 13 13 13 14 14 13 12 13 13 13 14 14 14 13 12 11
10 6 2 3 14 11 11 7 5 11 8 7 21 18 17 21 22 17 20 17 22 22 16 17 13 12 13 12 13 13 14 13 12 12 12 12 13 13 13 11 11 12 12 13 12 12 12 10 9
14 2 2 8 14 13 7 11 0 9 11 12 21 21 17 20 18 16 18 15 15 25 15 18 17 14 13 13 13 13 13 13 13 13 13 12 12 12 12 11 10 10 10 11 11 9 8 7 7
12 4 9 10 12 16 8 11 3 8 14 17 22 13 21 21 17 14 14 12 11 14 12 18 18 17 16 15 13 13 13 14 12 13 13 13 12 12 12 14 9 8 8 8 8 7 5 6 7
8 5 5 7 13 14 10 12 7 7 12 8 8 18 22 21 17 16 16 13 10 13 10 24 16 13 13 15 14 13 13 14 14 11 9 15 15 12 12 13 9 8 7 6 5 4 6 7 8
8 4 6 8 4 16 11 9 12 13 12 11 13 25 24 19 17 16 14 15 13 14 22 9 13 16 15 11 13 14 14 14 11 8 9 7 14 13 14 10 8 8 7 7 7 8 12 13 14
3 1 6 9 12 10 16 8 4 12 13 14 15 21 22 20 16 16 16 14 15 13 14 21 12 11 14 15 16 12 15 11 10 8 5 10 11 8 11 12 12 11 12 12 10 11 12 4 3
6 7 6 2 8 5 10 13 5 7 12 12 17 22 21 18 17 15 16 15 15 15 12 14 13 12 12 17 12 11 12 13 14 9 8 5 8 4 4 8 7 7 8 6 11 6 2 3 3
9 9 7 3 2 4 5 16 6 9 10 19 21 21 19 17 15 14 14 14 15 14 12 15 13 7 7 3 7 11 9 9 15 12 3 3 7 3 5 1 3 6 9 9 5 4 3 3 5
8 10 9 5 5 2 8 10 12 10 17 18 18 18 17 16 13 13 13 14 15 13 13 15 14 12 10 11 6 8 7 11 11 10 8 1 2 1 8 7 9 6 2 3 5 2 5 4 8
13 12 9 4 5 4 11 8 11 15 17 18 18 18 15 14 15 13 15 14 14 14 13 13 14 13 9 10 10 9 9 11 8 10 6 2 3 2 3 4 6 7 4 2 2 5 2 3 9
11 10 8 12 12 7 6 11 13 18 18 19 18 16 17 12 16 16 13 17 15 16 13 13 14 15 13 13 9 5 4 5 7 10 9 5 4 1 7 10 7 10 10 9 7 8 4 4 7
14 8 10 9 11 7 9 9 21 20 19 18 17 18 18 15 14 16 15 14 16 16 14 13 14 13 10 10 7 6 5 10 6 7 9 3 4 2 10 5 4 7 5 7 6 6 3 2 3
2 17 9 6 7 8 12 20 8 21 18 17 17 19 18 16 16 15 17 16 15 17 15 13 12 14 9 9 5 8 8 5 7 5 9 5 6 2 10 3 6 2 11 12 11 6 2 4 3
7 4 12 5 5 4 4 16 10 9 18 17 19 19 19 18 17 16 16 18 17 17 16 15 8 13 9 12 11 9 10 6 7 6 6 4 2 3 6 10 9 2 11 14 3 6 5 3 2
7 8 8 6 5 2 2 7 11 21 20 25 20 17 14 19 20 18 17 17 20 18 17 15 15 11 11 10 5 3 4 11 9 7 8 6 4 2 3 6 5 8 2 5 5 7 11 4 1
11 5 13 3 7 2 4 5 4 20 15 14 16 16 23 20 22 22 18 20 18 18 18 17 15 14 12 10 6 5 6 3 4 9 9 8 5 4 3 1 6 7 9 8 1 4 9 9 4
15 1 4 5 9 8 9 2 13 21 19 20 24 21 23 23 21 22 20 18 19 20 17 17 17 14 12 10 11 9 9 9 10 4 3 8 5 5 4 3 1 2 11 8 2 1 9 9 14
2 5 12 7 12 14 11 3 8 20 16 24 27 27 25 24 23 23 21 20 19 19 19 18 17 15 13 12 8 9 12 6 10 5 11 5 8 7 6 3 3 3 8 2 4 6 5 9 8
14 7 10 13 16 17 15 14 8 13 19 27 27 24 27 24 23 22 22 22 19 20 19 19 18 15 13 13 12 12 9 7 2 4 4 9 8 12 8 6 5 4 7 4 6 3 6 7 8
11 16 19 15 10 6 15 17 6 19 8 15 24 27 26 22 23 24 22 22 21 21 18 18 19 18 17 17 15 14 12 6 6 5 8 5 14 8 16 8 4 8 7 6 7 3 7 7 8
16 23 16 4 5 6 21 9 5 9 6 13 15 25 24 23 22 24 23 21 20 19 19 17 20 19 19 18 16 14 13 11 12 12 10 9 11 8 7 7 8 8 8 9 7 9 11 5 6
10 16 32 14 4 15 6 18 12 4 11 6 14 24 29 29 23 23 23 21 18 19 19 18 18 18 18 19 17 16 14 13 12 8 9 10 6 10 8 3 6 6 8 8 7 12 10 7 8
3 20 11 12 6 11 5 5 7 9 8 2 8 18 23 27 27 23 24 23 21 20 20 19 18 18 17 17 18 18 18 16 14 9 6 7 5 3 3 6 9 10 11 10 8 12 12 9 9
11 13 19 14 3 0 1 2 12 10 8 8 7 1 9 30 31 17 22 22 21 19 20 20 19 18 16 16 17 17 18 19 16 13 11 10 10 8 7 9 9 10 9 9 10 12 12 9 10
8 13 24 11 9 6 16 6 11 9 9 8 11 7 7 13 5 19 15 21 20 19 16 20 19 18 17 16 15 16 15 15 15 14 14 13 12 10 10 9 9 10 10 10 10 11 14 9 11
Wind_Direction
248 229 254 253 261 102 77 92 98 95 73 70 75 115 77 40 150 118 111 119 127 139 162 148 135 119 111 110 103 104 102 103 100 100 97 98 93 93 95 97 96 94 92 96 96 98 102 100 99
249 276 249 316 101 82 89 103 88 83 88 94 77 94 73 76 94 118 128 140 143 149 164 133 133 119 107 111 115 103 99 97 98 99 101 99 97 95 98 97 96 96 93 97 99 95 97 96 98
250 280 274 248 26 53 90 94 97 95 112 74 80 42 86 105 121 126 133 150 142 132 128 115 129 127 123 120 113 106 104 106 105 106 104 105 95 96 99 103 100 92 90 94 106 106 99 102 94
238 227 234 291 69 77 96 91 105 127 80 98 100 93 98 104 112 122 132 140 148 84 101 116 121 122 117 122 105 107 109 114 112 100 104 101 105 100 103 101 99 97 92 86 100 102 102 98 94
241 256 271 97 95 92 94 109 134 136 105 89 107 112 100 101 114 127 133 122 131 160 122 115 117 127 119 115 109 110 112 110 105 113 106 102 99 106 105 106 102 98 92 89 99 97 100 96 99
243 289 86 88 103 97 101 115 120 80 84 109 117 128 108 119 135 142 127 144 141 113 134 122 120 125 123 119 114 109 109 106 109 107 105 104 103 103 107 109 107 101 95 92 98 103 95 100 108
220 38 88 265 117 114 96 93 202 116 143 134 137 118 129 141 138 140 136 155 146 126 127 134 131 128 118 120 110 109 107 109 106 112 109 108 108 109 110 108 107 103 102 96 98 102 99 113 118
296 156 178 203 135 118 131 73 92 110 87 127 135 131 153 138 146 144 136 117 123 110 128 125 141 131 139 127 118 117 115 111 114 120 125 127 133 133 130 125 107 110 104 102 103 110 134 127 147
254 335 216 144 126 123 137 119 69 77 139 164 88 148 139 143 153 155 128 126 148 122 147 123 139 121 112 126 123 124 127 130 130 141 166 183 138 135 136 77 108 109 118 126 128 169 200 192 183
289 190 347 9 127 126 124 98 131 150 130 126 129 114 133 157 161 149 151 148 147 145 110 146 128 138 142 120 150 146 151 163 133 127 169 186 58 79 103 120 140 142 157 164 178 217 234 217 198
334 43 121 353 324 126 111 139 166 132 143 151 138 136 152 166 167 151 155 157 139 131 131 110 124 136 141 143 163 175 165 129 116 167 189 118 142 154 186 144 166 151 190 186 193 217 230 40 302
92 96 119 327 299 123 148 106 313 31 96 133 143 148 158 169 166 163 148 147 140 134 141 128 142 113 191 161 211 148 135 135 154 110 116 175 111 85 339 67 106 177 111 175 218 94 89 113 220
112 107 116 105 270 346 119 124 173 102 121 134 140 157 167 172 161 157 135 134 139 149 155 131 131 123 98 192 130 100 125 161 105 166 172 78 101 82 110 131 59 69 186 147 158 139 106 149 142
108 129 118 74 359 155 232 152 165 133 137 139 148 157 166 161 162 141 147 153 152 150 153 128 142 134 150 108 106 147 193 110 167 138 123 169 39 285 134 175 153 171 111 98 131 351 164 154 114
123 136 143 115 330 318 318 181 171 147 146 148 163 164 152 161 143 159 160 154 156 156 147 148 143 149 152 134 161 184 150 161 144 108 154 151 204 168 309 97 243 131 106 199 176 236 260 120 117
194 150 169 176 194 244 268 219 148 159 159 161 167 166 150 161 155 157 162 164 150 148 153 170 151 149 161 142 179 160 118 148 144 134 152 159 127 173 245 206 174 163 197 183 142 211 193 165 158
191 192 196 149 198 216 231 212 160 175 173 171 168 167 158 173 150 146 162 163 148 140 159 175 143 143 152 146 163 110 135 241 148 132 138 163 150 170 297 299 158 257 165 146 162 147 205 120 181
25 308 134 162 131 212 228 242 287 171 180 182 177 169 165 180 160 162 166 151 161 148 158 170 165 134 151 174 154 153 193 175 152 154 105 164 133 167 275 259 304 255 254 98 53 3 35 259 253
246 274 77 78 105 198 237 270 243 186 187 181 170 189 175 173 163 159 166 157 156 157 162 164 141 149 169 173 189 161 186 179 171 159 112 134 183 125 283 280 291 142 105 55 105 194 210 242 74
289 270 129 137 152 197 167 257 296 257 201 167 184 200 178 176 167 163 169 168 165 167 169 174 154 158 205 201 238 102 351 177 174 153 154 220 147 207 205 326 320 28 50 81 2 338 314 210 256
236 76 298 76 154 139 134 278 295 251 208 181 194 210 183 203 174 166 179 169 174 168 177 179 187 180 202 269 200 153 130 138 171 131 177 182 200 208 278 266 333 353 307 123 356 349 304 314 123
262 270 192 286 176 250 176 355 242 220 202 201 200 213 228 198 184 171 178 183 179 166 181 179 182 180 197 220 241 166 194 195 184 186 151 136 221 218 200 234 255 287 326 15 278 140 319 332 317
193 293 261 259 262 145 178 132 283 180 209 201 201 206 212 205 188 173 185 184 180 171 175 178 184 188 205 195 240 188 237 122 180 182 126 249 160 252 230 185 228 257 267 73 324 321 333 310 311
273 240 243 235 249 248 170 214 206 210 210 196 204 201 222 197 182 184 181 175 187 173 177 176 176 188 198 186 194 220 258 231 58 203 171 211 208 185 216 206 220 283 290 259 263 279 271 295 327
220 234 243 219 237 281 163 202 180 216 189 204 192 210 208 216 191 186 183 182 186 176 181 178 176 190 194 191 201 204 219 233 259 245 213 246 283 212 154 185 208 242 225 278 297 276 298 282 283
207 240 259 280 234 219 277 158 200 128 134 168 204 221 199 200 227 191 189 190 184 183 179 192 178 192 196 201 201 200 206 218 224 204 253 315 185 303 109 171 224 223 243 248 240 256 242 277 230
240 215 237 255 258 291 122 120 79 122 135 188 194 226 212 199 207 214 188 191 184 192 184 193 187 193 199 201 203 204 207 219 225 281 201 205 261 193 196 245 254 265 256 256 258 251 266 274 256
158 325 254 231 232 247 158 40 73 22 74 24 284 229 214 177 201 209 190 189 187 195 188 193 196 191 200 207 200 206 210 214 229 248 225 258 268 197 304 291 270 239 243 248 266 259 257 234 263
201 177 242 242 65 308 186 331 60 71 69 71 50 93 332 167 217 201 199 187 185 196 192 188 197 194 197 202 202 208 207 208 214 224 217 231 246 246 239 240 247 250 245 236 243 259 281 280 260
356 337 323 340 351 98 281 135 64 50 73 63 88 51 121 327 227 195 200 195 191 193 212 187 193 198 197 198 199 203 213 217 215 217 225 214 226 235 240 247 235 239 249 261 237 243 274 253 271